Location: Astronomy Club of Akron Observatory
(40.9700°N, 81.5606°W)
Time: 05:35:55
(UTC-04:00)

Daily predictions for brighter satellites

Satellite Brightness Start Highest point End
(mag) Time Altitude Azimuth Time Altitude Azimuth Time Altitude Azimuth
ALOS 2 4.1 00:07:05 26° ENE 00:07:07 26° ENE 00:10:44 10° NNE
NOSS 3-2 (C) 4.1 00:08:05 37° ESE 00:08:05 37° ESE 00:13:32 10° NE
H-2A R/B 3.0 00:07:09 32° WSW 00:08:08 35° W 00:12:44 10° NNW
Cosmos 1544 3.8 00:05:00 10° N 00:07:57 53° NNW 00:07:57 53° NNW
Cosmos 1850 Rocket 4.2 00:14:00 50° SW 00:15:10 65° WNW 00:20:23 10° NNE
Cosmos 1570 Rocket 4.2 00:10:17 10° NNW 00:15:32 57° WSW 00:16:03 55° SW
Cosmos 1842 Rocket 4.1 00:12:52 10° NNW 00:17:01 49° W 00:17:01 49° W
Cosmos 2082 Rocket 4.2 00:18:14 15° E 00:18:14 15° E 00:20:23 10° ENE
Cosmos 1707 3.6 00:24:10 48° NNE 00:24:10 48° NNE 00:27:05 10° N
Cosmos 1092 Rocket 4.2 00:22:26 46° SW 00:24:16 66° W 00:30:32 10° N
Cosmos 1943 Rocket 3.2 00:22:14 10° NW 00:27:06 32° WSW 00:27:40 31° WSW
SL-8 R/B 3.7 00:24:11 10° WNW 00:28:56 76° NNE 00:28:56 76° NNE
Cosmos 468 Rocket 4.3 00:29:47 10° N 00:34:58 54° ENE 00:35:15 54° E
ISS 0.1 00:35:07 10° NW 00:36:50 13° N 00:38:33 10° NNE
Meteor 1-24 Rocket 3.7 00:39:21 68° SE 00:39:51 73° E 00:45:47 10° NNE
Cosmos 1656 Rocket 3.9 00:34:42 10° NNW 00:40:14 54° WSW 00:40:27 53° WSW
Cosmos 1814 Rocket 4.3 00:37:15 10° N 00:42:27 56° ENE 00:42:46 55° E
S3M 4.0 00:37:20 10° N 00:43:32 63° E 00:44:21 58° ESE
Landsat 5 4.4 00:50:14 42° NNE 00:50:14 42° NNE 00:53:14 10° N
H-2A R/B 3.4 00:46:34 10° NNE 00:49:07 40° NNE 00:49:07 40° NNE
Cosmos 1766 Rocket 4.0 00:51:41 59° NNE 00:51:41 59° NNE 00:55:23 10° N
NOSS 3-2 (A) 3.4 00:50:05 63° SW 00:51:13 88° NW 00:57:53 10° NE
COSMOS 2487 4.5 00:52:22 27° NW 00:52:22 27° NW 00:54:52 10° N
Cosmos 1655 Rocket 4.0 00:51:26 61° SW 00:52:30 75° W 00:58:47 10° N
Cosmos 1428 Rocket 4.3 00:53:12 68° SE 00:53:48 74° E 01:00:00 10° N
Timation 2 Rocket 4.1 00:54:32 60° SE 00:55:16 64° ESE 01:02:01 10° NNE
Cosmos 1076 Rocket 4.1 00:57:52 54° N 00:57:52 54° N 01:01:13 10° N
CZ-2C R/B 3.8 00:52:54 10° NE 00:57:28 30° E 00:57:28 30° E
Cosmos 1486 Rocket 4.1 00:58:22 64° ENE 00:58:22 64° ENE 01:03:05 10° NNE
Cosmos 2221 3.4 00:54:43 10° NNW 00:58:04 44° NW 00:58:04 44° NW
CZ-4C R/B 2.0 00:58:46 77° WSW 00:59:08 83° NW 01:05:09 10° NNE
Cosmos 1328 Rocket 4.5 00:55:49 10° N 00:59:20 42° NE 00:59:20 42° NE
Cosmos 2344 3.7 01:07:08 51° SSE 01:08:22 56° ESE 01:16:38 10° NE
Cosmos 1818 3.5 01:02:52 10° NNW 01:08:23 80° ENE 01:08:30 79° ENE
In-Cosmos 22 4.5 01:08:53 54° E 01:08:53 54° E 01:14:22 10° NNE
Cosmos 1515 Rocket 4.4 01:09:11 10° N 01:12:52 46° NE 01:12:52 46° NE
Cosmos 2026 Rocket 4.5 01:13:24 43° WSW 01:14:33 47° WNW 01:20:23 10° N
Cosmos 1763 Rocket 3.8 01:09:22 10° NNW 01:14:36 58° ENE 01:14:50 57° E
CZ-4B R/B 3.4 01:17:49 29° NW 01:17:49 29° NW 01:19:53 10° NNW
Lacrosse 5 3.6 01:13:47 10° NNW 01:18:15 30° NNE 01:21:51 14° E
Meteor 1-21 Rocket 4.4 01:18:19 59° ESE 01:18:27 60° E 01:24:01 10° NNE
Cosmos 2369 3.5 01:14:02 10° NNW 01:19:43 87° ENE 01:19:53 84° SE
Cosmos 2228 Rocket 3.7 01:17:11 10° NNW 01:20:39 53° NNW 01:20:39 53° NNW
Cosmos 724 4.2 01:34:02 67° ESE 01:34:02 67° ESE 01:39:46 10° NE
Meteor 2-2 Rocket 4.3 01:28:15 10° N 01:33:58 68° E 01:34:28 65° ESE
Cosmos 405 Rocket 4.4 01:37:20 29° NW 01:37:20 29° NW 01:39:43 10° N
Cosmos 1980 Rocket 3.6 01:35:19 10° N 01:40:22 32° ENE 01:42:54 23° E
Cosmos 2278 4.0 01:36:33 10° NNW 01:41:40 52° W 01:41:40 52° W
Cosmos 1867 3.7 01:42:42 64° W 01:43:07 67° NW 01:48:36 10° NNE
ALOS 2 4.2 01:44:29 25° WNW 01:44:29 25° WNW 01:47:09 10° NW
Cosmos 1354 Rocket 3.9 01:45:26 85° NW 01:45:26 85° NW 01:50:43 10° NNE
Lacrosse 5 rocket 4.2 01:45:05 10° NNW 01:48:05 18° NNE 01:51:10 10° ENE
Cosmos 883 Rocket 4.4 01:43:50 10° N 01:50:12 79° W 01:50:57 69° SSW
CENTAUR R/B 2.8 01:50:42 50° ESE 01:50:55 50° ESE 01:57:24 10° NE
Cosmos 1503 Rocket 3.9 01:51:14 80° WNW 01:51:16 80° WNW 01:56:37 10° NNE
Cosmos 2058 4.4 01:54:35 30° ENE 01:54:35 30° ENE 01:57:36 10° NNE
USA 32 4.4 01:49:16 10° N 01:54:24 52° E 01:54:47 51° E
Cosmos 841 Rocket 3.6 01:49:42 10° NNW 01:54:33 66° WNW 01:54:33 66° WNW
Helios 1A Rocket 4.4 01:51:20 10° N 01:54:23 31° NW 01:54:23 31° NW
Nadezhda 2 Rocket 4.4 01:56:22 68° S 01:57:15 87° E 02:03:35 10° N
NOSS 3-2 (C) 4.5 01:55:29 27° W 01:58:24 42° NW 02:04:46 10° NNE
Cosmos 1441 Rocket 4.3 02:00:22 46° N 02:00:22 46° N 02:03:12 10° N
Cosmos 2082 Rocket 2.2 02:00:04 66° W 02:00:33 70° WNW 02:06:14 10° NNE
Cosmos 1697 Rocket 2.7 01:54:57 10° NNW 02:00:39 75° ENE 02:01:24 65° ESE
Cosmos 1437 Rocket 3.8 01:58:08 10° N 02:00:53 43° N 02:00:53 43° N
Meteor 2-20 Rocket 4.4 02:01:54 61° WSW 02:02:41 68° W 02:08:51 10° N
CZ-2C R/B 3.1 02:05:11 72° SE 02:05:45 83° ENE 02:11:29 10° N
Cosmos 2151 3.5 02:06:59 58° NNE 02:06:59 58° NNE 02:10:28 10° N
Cosmos 1151 Rocket 3.7 02:02:42 10° NNW 02:06:00 51° NNW 02:06:00 51° NNW
Cosmos 1833 Rocket 2.5 02:07:07 74° WSW 02:07:33 80° WNW 02:13:13 10° NNE
ISS -0.2 02:12:09 10° NNW 02:14:18 16° NNE 02:16:26 10° NE
ASTEX 1 3.4 02:12:02 10° N 02:17:00 72° E 02:17:04 72° E
Cosmos 1726 3.7 02:16:47 10° NNE 02:19:41 31° ENE 02:19:41 31° ENE
Cosmos 332 Rocket 4.3 02:16:30 10° N 02:21:12 52° ENE 02:21:55 47° E
Cosmos 2315 Rocket 4.0 02:16:50 10° NNW 02:23:03 62° W 02:23:54 56° SW
Cosmos 1674 4.1 02:25:43 32° NW 02:25:43 32° NW 02:28:12 10° N
Cosmos 1656 4.0 02:22:38 10° NNW 02:27:54 50° W 02:27:54 50° W
Cosmos 1745 Rocket 4.2 02:29:28 47° SSE 02:31:08 64° E 02:37:24 10° NNE
Sich 1 3.4 02:31:28 56° E 02:31:28 56° E 02:35:42 10° NNE
Nadezhda 1 Rocket 4.3 02:31:43 10° N 02:37:49 60° E 02:40:02 38° SE
CZ-2C R/B 3.6 02:33:00 10° N 02:38:00 36° WNW 02:39:00 33° W
Cosmos 1626 4.4 02:40:53 17° E 02:41:16 17° E 02:43:47 10° NE
Meteor 1-27 4.2 02:37:26 10° N 02:43:19 90° ENE 02:44:37 57° S
SL-16 R/B 3.4 02:38:13 10° N 02:43:32 39° ENE 02:48:36 11° SE
Aureole 1 Rocket 3.9 02:45:31 10° NNW 02:50:14 51° WSW 02:50:19 51° WSW
SL-14 R/B 3.5 02:51:16 64° N 02:51:16 64° N 02:54:34 10° N
Cosmos 2322 Rocket 2.9 02:49:45 10° NNW 02:55:15 51° ENE 02:59:24 17° SE
Cosmos 540 Rocket 3.7 02:52:24 10° NNW 02:57:19 50° W 02:57:19 50° W
Lacrosse 5 2.0 02:56:30 10° NW 03:00:56 55° WSW 03:00:56 55° WSW
Cosmos 1703 3.3 03:02:50 72° E 03:02:50 72° E 03:06:44 10° NNE
PSLV R/B 3.6 02:58:23 10° N 03:02:57 69° WNW 03:03:15 66° WSW
USA 215 3.3 02:59:53 10° NE 03:06:25 69° SE 03:08:41 43° SSW
Cosmos 1271 Rocket 3.2 03:06:04 10° N 03:09:46 52° ENE 03:10:13 48° ESE
Cosmos 371 Rocket 3.1 03:07:24 10° NNW 03:12:16 76° WSW 03:13:03 61° S
CZ-2D R/B 4.2 03:16:04 10° NE 03:19:55 20° E 03:23:45 10° SE
Cosmos 1980 Rocket 2.8 03:19:14 10° NW 03:24:22 36° WSW 03:24:37 36° WSW
BREEZE-M DEB (TANK) 4.3 03:19:35 10° WNW 03:24:33 27° N 03:26:57 10° ENE
Cosmos 2360 Rocket 3.8 03:20:04 10° N 03:25:09 34° ENE 03:30:13 10° ESE
ERS-2 2.2 03:22:10 10° N 03:25:50 62° WNW 03:25:52 62° WNW
IRAS Rocket 4.4 03:21:10 10° N 03:26:35 61° WNW 03:28:20 41° SW
Lacrosse 5 rocket 1.5 03:23:33 10° NW 03:27:57 80° NE 03:32:31 10° SE
Cosmos 2242 Rocket 4.1 03:24:03 10° NNW 03:28:11 40° W 03:28:12 40° W
Cosmos 1633 Rocket 4.0 03:29:41 32° W 03:30:03 33° WNW 03:34:04 10° NNW
NPP 3.6 03:24:45 10° N 03:30:09 78° WNW 03:32:03 42° SSW
deb Kosmos-1763 4.3 03:31:42 55° W 03:31:56 56° WNW 03:35:45 10° N
Meteor 1-4 Rocket 2.5 03:29:50 10° NNW 03:33:37 74° W 03:33:52 70° SW
Meteor 2-10 4.0 03:31:08 10° NNW 03:36:21 66° W 03:38:21 38° SSW
AQUA 3.8 03:35:02 10° N 03:39:48 73° WNW 03:41:19 43° SSW
Cosmos 2181 Rocket 4.0 03:33:39 10° N 03:39:50 83° E 03:44:14 21° S
OAO 3 Rocket 3.5 03:40:41 40° S 03:40:41 40° S 03:44:55 10° ESE
Cosmos 968 Rocket 4.1 03:39:31 33° WSW 03:41:06 42° WNW 03:45:59 10° N
CENTAUR R/B 3.7 03:37:51 18° W 03:41:50 35° NW 03:48:09 10° NNE
Cosmos 2292 Rocket 2.9 03:41:40 58° SE 03:42:03 66° E 03:45:36 10° NNE
Cosmos 1703 Rocket 4.2 03:43:26 10° N 03:47:43 52° E 03:51:02 16° SSE
Cosmos 1470 Rocket 4.2 03:49:23 36° WSW 03:50:20 41° WNW 03:54:32 10° N
ISS -2.7 03:48:03 10° NW 03:51:17 56° NNE 03:54:29 10° ESE
Cosmos 1933 Rocket 4.3 03:53:52 33° WSW 03:54:51 37° WNW 03:58:58 10° N
Cosmos 1726 4.4 03:53:13 10° NW 03:54:21 13° WNW 03:54:21 13° WNW
IRS-1C 4.2 03:52:30 10° N 03:57:48 65° WNW 04:00:24 30° SW
ATLAS 5 CENTAUR R/B 1.8 03:55:40 34° SSW 03:57:48 81° ESE 04:03:03 10° NE
Cosmos 1455 2.5 03:55:04 10° NNW 03:58:40 43° W 03:59:09 41° WSW
USA 229 DEB 4.3 04:03:01 18° S 04:07:55 50° ESE 04:14:36 10° NE
USA 229 4.3 04:03:06 18° S 04:08:02 49° ESE 04:14:42 10° NE
BREEZE-M DEB (TANK) 4.5 03:57:57 10° W 04:08:06 53° N 04:11:41 10° ENE
Cosmos 2074 Rocket 4.2 04:03:57 16° S 04:09:03 73° E 04:15:18 10° N
Resurs 1-4 Rocket 2.6 04:04:33 10° NNE 04:09:49 59° E 04:14:13 15° S
Spot 4 Rocket 4.1 04:05:33 10° N 04:10:40 67° WNW 04:13:36 25° SSW
Cosmos 923 Rocket 4.2 04:05:55 10° NNW 04:10:59 49° WSW 04:14:12 21° S
Okean 1-7 3.6 04:06:57 10° N 04:11:18 58° E 04:15:34 10° SSE
SL-08 R/B 4.3 04:12:32 25° WSW 04:13:42 28° W 04:17:55 10° NW
Cosmos 1833 4.2 04:10:11 25° SSW 04:13:44 88° WNW 04:19:31 10° NNE
USA 161 2.6 04:14:46 24° WNW 04:14:46 24° WNW 04:16:08 10° NNW
COSMOS 2428 4.1 04:08:53 10° N 04:14:14 41° ENE 04:19:34 10° SE
Cosmos 2184 Rocket 4.1 04:09:43 15° S 04:15:10 79° E 04:21:31 10° N
Cosmos 1626 3.3 04:15:37 25° W 04:16:27 27° WNW 04:19:43 10° NNW
SL-16 R/B 2.6 04:10:54 10° SSE 04:17:10 88° ENE 04:23:28 10° NNW
Cosmos 1680 Rocket 3.6 04:14:49 10° NNW 04:19:54 54° WSW 04:24:23 13° S
GENESIS II 4.2 04:17:03 10° NNW 04:21:12 87° SW 04:25:14 10° SSE
Cosmos 2327 Rocket 4.4 04:17:08 16° S 04:22:12 89° W 04:28:27 10° N
GPS 2-05 Rocket1 3.5 04:24:25 30° SSW 04:24:58 32° S 04:28:02 10° ESE
SL-16 R/B 3.0 04:22:37 10° NW 04:27:28 30° WSW 04:30:22 19° SSW
UNKNOWN OBJECT B 3.1 04:26:32 10° NNE 04:30:21 65° E 04:33:41 13° S
SME Rocket 4.2 04:23:58 10° SSE 04:30:30 64° ENE 04:35:00 10° N
Okean O Rocket 2.8 04:27:39 10° NNE 04:31:51 41° E 04:35:59 10° S
MTI 3.8 04:30:34 11° S 04:33:44 83° WSW 04:37:06 10° NNW
ARIANE 5 R/B 2.7 04:31:55 10° N 04:36:53 55° WNW 04:40:39 17° SW
Cosmos 2322 Rocket 3.4 04:34:41 10° NW 04:38:51 22° W 04:41:08 17° SW
IRS-1D 3.8 04:35:45 10° N 04:40:59 58° WNW 04:45:17 15° SSW
Thor Agena Rocket 4.5 04:36:00 10° SSE 04:41:08 53° ENE 04:46:17 10° N
Meteor 2-3 Rocket 3.9 04:38:01 10° S 04:43:48 81° E 04:49:37 10° NNE
IRS-1C Rocket 4.4 04:40:27 10° NNE 04:45:44 70° ESE 04:51:00 10° S
Cosmos 2219 Rocket 3.9 04:41:56 10° N 04:47:06 37° ENE 04:52:15 10° SE
USA 215 4.2 04:43:08 10° NE 04:49:10 41° NNW 04:55:12 10° W
Cosmos 1898 Rocket 3.5 04:44:57 14° SSW 04:49:30 79° WNW 04:54:42 10° NNE
BREEZE-M DEB (TANK) 3.6 04:40:00 15° SW 04:49:30 66° SSE 04:53:04 10° ENE
H-2A R/B 4.1 04:44:34 13° WSW 04:50:11 50° S 05:28:37 10° ESE
Cosmos 389 Rocket 2.9 04:49:25 10° N 04:53:07 68° E 04:56:46 10° SSE
EO 1 Del DPAF 4.4 04:51:49 15° SSW 04:54:15 27° W 04:57:38 10° NW
Cosmos 1869 Rocket 4.5 04:52:46 15° SW 04:55:50 33° WNW 04:59:51 10° NNW
Cosmos 1937 Rocket 3.6 04:50:41 10° SSW 04:55:59 85° ESE 05:01:19 10° NNE
MOZ.5/SAFIR/RUBIN 5/SL-8 4.5 04:54:44 10° SSE 04:59:20 59° ENE 05:03:59 10° N
CZ-2D R/B 2.5 04:55:11 10° N 05:00:14 50° WNW 05:05:20 10° SW
PSLV R/B 3.8 05:00:40 10° NNE 05:04:38 88° W 05:08:40 10° SSW
ATLAS CENTAUR R/B 1.5 04:59:57 10° NW 05:04:38 78° WSW 05:08:54 10° SSE
Lacrosse 5 rocket 3.2 05:04:24 10° W 05:06:46 14° WSW 05:09:10 10° SSW
Cosmos 2150 Rocket 4.4 05:02:30 11° SW 05:07:27 52° WNW 05:12:44 10° N
Cosmos 2360 Rocket 2.8 05:04:04 10° NW 05:09:07 35° WSW 05:14:09 10° SSW
CZ-4B R/B 3.4 05:07:27 10° NNE 05:11:30 66° E 05:15:44 10° S
CZ-2D R/B 3.6 05:07:53 10° N 05:11:57 55° WNW 05:15:54 10° SSW
Cosmos 2227 Rocket 3.5 05:07:14 10° S 05:12:25 39° ESE 05:17:40 10° NE
In-Cosmos 22 Rocket 4.4 05:08:48 10° SSW 05:13:58 51° WNW 05:19:14 10° N
Meteor 2-10 Rocket 3.5 05:12:51 10° N 05:17:55 86° W 05:23:08 10° S
CZ-4B R/B 3.3 05:13:12 10° NNE 05:18:42 86° WNW 05:24:16 10° SSW
Cosmos 1782 3.2 05:14:55 10° N 05:18:55 68° E 05:22:53 10° SSE
Cosmos 292 Rocket 3.8 05:17:53 10° NNW 05:22:37 58° WSW 05:27:17 10° S
CZ-2C R/B 4.0 05:18:51 10° S 05:23:09 46° W 05:27:33 10° NNW
OAO 3 Rocket 4.1 05:19:34 10° WSW 05:23:33 28° SSW 05:27:34 10° SE
Cosmos 2333 4.2 05:17:55 10° NNW 05:23:34 73° WSW 05:29:13 10° SSE
Cosmos 2219 3.9 05:20:33 10° SW 05:25:58 42° WNW 05:31:26 10° N
ISS -1.7 05:25:21 10° W 05:27:25 16° SW 05:29:29 10° S
Cosmos 2341 Rocket 4.1 05:21:32 10° SSW 05:27:49 71° W 05:34:11 10° N
Cosmos 1733 Rocket 3.2 05:23:36 10° SSW 05:27:51 55° W 05:32:09 10° N
Coronas F rocket 1.5 05:25:21 10° S 05:28:04 73° E 05:30:49 10° NNE
ADEOS II 3.7 05:24:01 10° NNE 05:28:52 36° E 05:33:41 10° SSE
Cosmos 1606 3.9 05:25:11 10° N 05:28:52 46° E 05:32:30 10° SSE
Cosmos 220 Rocket 4.0 05:24:57 10° SSW 05:29:11 69° WNW 05:33:29 10° NNE
NOSS 3-1 (C) 3.9 05:26:50 10° SSW 05:32:34 63° ESE 05:38:55 10° NE
